Time,TemperatureF,DewpointF,PressureIn,WindDirection,WindDirectionDegrees,WindSpeedMPH,WindSpeedGustMPH,Humidity,HourlyPrecipIn,Conditions,Clouds,dailyrainin,SoftwareType,DateUTC
2013-02-25 00:02:00,27.0,26.0,-100.00,ENE,75,1.0,1.0,94,0.00,,,-99.99,,2013-02-25 06:02:00,
2013-02-25 00:11:00,27.0,26.0,-100.00,East,95,1.0,2.0,94,0.00,,,-99.99,,2013-02-25 06:11:00,
2013-02-25 00:21:00,27.0,26.0,-100.00,East,90,3.0,4.0,95,0.00,,,-99.99,,2013-02-25 06:21:00,
2013-02-25 00:31:00,28.0,26.0,-100.00,NE,55,0.0,2.0,94,0.00,,,-99.99,,2013-02-25 06:31:00,
2013-02-25 00:41:00,28.0,26.0,-100.00,NE,55,0.0,2.0,94,0.00,,,-99.99,,2013-02-25 06:41:00,
2013-02-25 00:51:00,27.0,26.0,-100.00,ENE,70,1.0,1.0,95,0.00,,,-99.99,,2013-02-25 06:51:00,
2013-02-25 01:01:00,27.0,26.0,-100.00,ENE,70,1.0,1.0,95,0.00,,,-99.99,,2013-02-25 07:01:00,
2013-02-25 01:11:00,27.0,26.0,-100.00,ENE,70,0.0,1.0,95,0.00,,,-99.99,,2013-02-25 07:11:00,
2013-02-25 01:21:00,27.0,26.0,-100.00,NE,40,2.0,2.0,95,0.00,,,-99.99,,2013-02-25 07:21:00,
2013-02-25 01:31:00,27.0,26.0,-100.00,ENE,60,2.0,2.0,95,0.00,,,-99.99,,2013-02-25 07:31:00,
2013-02-25 01:41:00,27.0,26.0,-100.00,ENE,60,2.0,2.0,95,0.00,,,-99.99,,2013-02-25 07:41:00,
2013-02-25 01:51:00,28.0,27.0,-100.00,ENE,70,1.0,1.0,95,0.00,,,-99.99,,2013-02-25 07:51:00,
2013-02-25 02:01:00,28.0,27.0,-100.00,ENE,70,1.0,1.0,95,0.00,,,-99.99,,2013-02-25 08:01:00,
2013-02-25 02:11:00,28.0,27.0,-100.00,ENE,65,0.0,1.0,95,0.00,,,-99.99,,2013-02-25 08:11:00,
2013-02-25 02:21:00,28.0,27.0,-100.00,NW,310,0.0,0.0,95,0.00,,,-99.99,,2013-02-25 08:21:00,
2013-02-25 02:32:00,28.0,27.0,-100.00,NE,40,3.0,3.0,95,0.00,,,-99.99,,2013-02-25 08:32:00,
2013-02-25 02:41:00,28.0,27.0,-100.00,NE,40,3.0,3.0,95,0.00,,,-99.99,,2013-02-25 08:41:00,
2013-02-25 02:52:00,28.0,27.0,-100.00,NE,50,3.0,4.0,95,0.00,,,-99.99,,2013-02-25 08:52:00,
2013-02-25 03:01:00,28.0,27.0,-100.00,NE,50,3.0,4.0,95,0.00,,,-99.99,,2013-02-25 09:01:00,
2013-02-25 03:12:00,28.0,27.0,-100.00,NE,55,2.0,4.0,95,0.00,,,-99.99,,2013-02-25 09:12:00,
2013-02-25 03:21:00,28.0,27.0,-100.00,ENE,65,2.0,3.0,95,0.00,,,-99.99,,2013-02-25 09:21:00,
2013-02-25 03:32:00,27.0,26.0,-100.00,NE,55,3.0,4.0,95,0.00,,,-99.99,,2013-02-25 09:32:00,
2013-02-25 03:41:00,27.0,26.0,-100.00,NE,55,3.0,4.0,95,0.00,,,-99.99,,2013-02-25 09:41:00,
2013-02-25 03:51:00,27.0,26.0,-100.00,East,85,4.0,6.0,95,0.00,,,-99.99,,2013-02-25 09:51:00,
2013-02-25 04:01:00,27.0,26.0,-100.00,East,85,4.0,6.0,95,0.00,,,-99.99,,2013-02-25 10:01:00,
2013-02-25 04:11:00,27.0,26.0,-100.00,East,95,1.0,4.0,95,0.00,,,-99.99,,2013-02-25 10:11:00,
2013-02-25 04:21:00,27.0,26.0,-100.00,East,95,3.0,3.0,95,0.00,,,-99.99,,2013-02-25 10:21:00,
2013-02-25 04:32:00,27.0,26.0,-100.00,East,80,3.0,6.0,95,0.00,,,-99.99,,2013-02-25 10:32:00,
2013-02-25 04:41:00,27.0,26.0,-100.00,East,80,3.0,6.0,95,0.00,,,-99.99,,2013-02-25 10:41:00,
2013-02-25 04:52:00,27.0,26.0,-100.00,NE,45,4.0,5.0,94,0.00,,,-99.99,,2013-02-25 10:52:00,
2013-02-25 05:01:00,27.0,26.0,-100.00,NE,45,4.0,5.0,94,0.00,,,-99.99,,2013-02-25 11:01:00,
2013-02-25 05:11:00,26.0,25.0,-100.00,ENE,65,3.0,4.0,93,0.00,,,-99.99,,2013-02-25 11:11:00,
2013-02-25 05:21:00,26.0,24.0,-100.00,ENE,65,4.0,4.0,93,0.00,,,-99.99,,2013-02-25 11:21:00,
2013-02-25 05:32:00,26.0,24.0,-100.00,ENE,60,3.0,4.0,93,0.00,,,-99.99,,2013-02-25 11:32:00,
2013-02-25 05:42:00,26.0,24.0,-100.00,ENE,60,3.0,4.0,93,0.00,,,-99.99,,2013-02-25 11:42:00,
2013-02-25 05:52:00,26.0,24.0,-100.00,NNE,25,2.0,3.0,94,0.00,,,-99.99,,2013-02-25 11:52:00,
2013-02-25 06:02:00,26.0,24.0,-100.00,NNE,25,2.0,3.0,94,0.00,,,-99.99,,2013-02-25 12:02:00,
2013-02-25 06:11:00,26.0,24.0,-100.00,NNE,20,3.0,4.0,94,0.00,,,-99.99,,2013-02-25 12:11:00,
2013-02-25 06:21:00,26.0,24.0,-100.00,NE,45,2.0,4.0,94,0.00,,,-99.99,,2013-02-25 12:21:00,
2013-02-25 06:32:00,26.0,24.0,-100.00,NE,35,2.0,3.0,95,0.00,,,-99.99,,2013-02-25 12:32:00,
2013-02-25 06:42:00,26.0,24.0,-100.00,NE,35,2.0,3.0,95,0.00,,,-99.99,,2013-02-25 12:42:00,
2013-02-25 06:53:00,26.0,25.0,-100.00,NE,55,2.0,3.0,95,0.00,,,-99.99,,2013-02-25 12:53:00,
2013-02-25 07:02:00,26.0,25.0,-100.00,NE,55,2.0,3.0,95,0.00,,,-99.99,,2013-02-25 13:02:00,
2013-02-25 07:12:00,26.0,25.0,-100.00,ENE,60,2.0,4.0,95,0.00,,,-99.99,,2013-02-25 13:12:00,
2013-02-25 07:22:00,26.0,25.0,-100.00,ENE,60,3.0,4.0,95,0.00,,,-99.99,,2013-02-25 13:22:00,
2013-02-25 07:32:00,27.0,26.0,-100.00,ENE,70,4.0,4.0,93,0.00,,,-99.99,,2013-02-25 13:32:00,
2013-02-25 07:42:00,27.0,26.0,-100.00,ENE,70,4.0,4.0,93,0.00,,,-99.99,,2013-02-25 13:42:00,
2013-02-25 07:52:00,27.0,25.0,-100.00,ENE,75,3.0,4.0,92,0.00,,,-99.99,,2013-02-25 13:52:00,
2013-02-25 08:03:00,27.0,25.0,-100.00,ENE,75,3.0,4.0,92,0.00,,,-99.99,,2013-02-25 14:03:00,
2013-02-25 08:17:00,28.0,25.0,-100.00,ENE,60,3.0,3.0,91,0.00,,,-99.99,,2013-02-25 14:17:00,
2013-02-25 08:32:00,29.0,26.0,-100.00,NE,45,2.0,3.0,87,0.00,,,-99.99,,2013-02-25 14:32:00,
2013-02-25 08:42:00,29.0,26.0,-100.00,NE,45,2.0,3.0,87,0.00,,,-99.99,,2013-02-25 14:42:00,
2013-02-25 08:52:00,30.0,26.0,-100.00,ENE,60,4.0,4.0,85,0.00,,,-99.99,,2013-02-25 14:52:00,
2013-02-25 09:02:00,30.0,26.0,-100.00,ENE,60,4.0,4.0,85,0.00,,,-99.99,,2013-02-25 15:02:00,
2013-02-25 09:11:00,31.0,26.0,-100.00,NE,45,2.0,5.0,84,0.00,,,-99.99,,2013-02-25 15:11:00,
2013-02-25 09:21:00,31.0,26.0,-100.00,NE,45,3.0,4.0,83,0.00,,,-99.99,,2013-02-25 15:21:00,
2013-02-25 09:32:00,31.0,26.0,-100.00,ENE,70,3.0,4.0,82,0.00,,,-99.99,,2013-02-25 15:32:00,
2013-02-25 09:41:00,31.0,26.0,-100.00,ENE,70,3.0,4.0,82,0.00,,,-99.99,,2013-02-25 15:41:00,
2013-02-25 09:51:00,32.0,26.0,-100.00,East,90,4.0,5.0,79,0.00,,,-99.99,,2013-02-25 15:51:00,
2013-02-25 10:02:00,32.0,26.0,-100.00,East,90,4.0,5.0,79,0.00,,,-99.99,,2013-02-25 16:02:00,
2013-02-25 10:11:00,32.0,26.0,-100.00,East,90,4.0,5.0,79,0.00,,,-99.99,,2013-02-25 16:11:00,
2013-02-25 10:21:00,32.0,26.0,-100.00,East,90,4.0,5.0,79,0.00,,,-99.99,,2013-02-25 16:21:00,
2013-02-25 10:32:00,32.0,26.0,-100.00,East,90,4.0,5.0,79,0.00,,,-99.99,,2013-02-25 16:32:00,